Location: Franzen
(48.6167°N, 15.3833°E)
Time: 04:00:13
(UTC+00:00)

Transit 2A - Pass Details

Date: 07 August 2021
Orbit: 594 x 964 km, 66.7° (Epoch: 21 September)

Event Time Altitude Azimuth Distance (km) Brightness Sun altitude
Rises 03:31:45 0° 196° (SSW) 2,837 8.5 -2.2°
Reaches altitude 10° 03:33:59 10° 190° (S) 1,959 7.8 -1.8°
Maximum altitude 03:38:11 47° 117° (ESE) 852 6.7 -1.2°
Drops below altitude 10° 03:42:43 10° 45° (NE) 2,119 9.9 -0.5°
Sets 03:45:13 0° 39° (NE) 3,096 10.5 -0.2°
